Regional Weather Roundup
Issued by NWS

Home | Current Version | Previous Version | Text Only | Print | Product List | Glossary Off
Versions: 1 2 3 4 5 6 7 8 9 10 11 12 13 14 15 16 17 18 19 20 21 22 23 24 25 26 27 28 29 30 31 32 33 34 35 36 37 38 39 40 41 42 43 44 45 46 47 48 49 50

590
ASUS43 KLOT 141403
RWRIL

ILLINOIS REGIONAL WEATHER ROUNDUP
NATIONAL WEATHER SERVICE CHICAGO/ROMEOVILLE IL
800 AM CST THU DEC 14 2017

NOTE: "FAIR" INDICATES FEW OR NO CLOUDS BELOW 12,000 FEET WITH NO
SIGNIFICANT WEATHER AND/OR OBSTRUCTIONS TO VISIBILITY.

* THESE STATIONS ARE NOT UNDER NWS QUALITY CONTROL. THEY ALSO MAY NOT
  REPORT WEATHER SUCH AS PRECIPITATION OR FOG.

ILZ001-002-007-009-015-016-024-141500-
NORTHWEST ILLINOIS

CITY           SKY/WX    TMP DP  RH WIND       PRES   REMARKS
MOLINE         CLOUDY    24  16  71 CALM      30.07R
STERLING*        N/A     16  10  77 MISG      30.08
SAVANNA*       CLOUDY    15  10  77 CALM      30.09R
$$

ILZ003-004-008-010-011-017-018-141500-
NORTH CENTRAL ILLINOIS

CITY           SKY/WX    TMP DP  RH WIND       PRES   REMARKS
ROCKFORD       CLOUDY    14   9  80 N6        30.07R WCI   5
FREEPORT*      CLOUDY    10   7  85 N5        30.07R WCI   2
ROCHELLE*      CLOUDY    13   9  82 N5        30.06R WCI   5
DE KALB*       CLOUDY    14   9  83 N9        30.04R WCI   1
PERU*          CLOUDY    14   9  79 CALM      30.07R
$$

ILZ005-006-012>014-019>023-141500-
NORTHEAST ILLINOIS

CITY           SKY/WX    TMP DP  RH WIND       PRES   REMARKS
CHICAGO-OHARE  PTCLDY    17   9  70 N13       30.02R WCI   4
CHICAGO-MIDWAY MOCLDY    18  11  74 NW12      30.03R WCI   5
AURORA         CLEAR     13   9  84 N6        30.03R WCI   4
LANSING*       CLOUDY    20  15  79 NW8       30.02R WCI  11
JOLIET*        PTCLDY    19  13  77 N8        30.05R WCI   9
WAUKEGAN       CLEAR     14   8  77 NW8       30.03R WCI   3
DUPAGE AIRPORT CLEAR     15  10  80 N10       30.02R WCI   2
KANKAKEE*      CLOUDY    19  13  76 NW7       30.04R WCI  10
WHEELING       CLEAR     16  10  77 NW9       30.05R WCI   4
MORRIS*        CLEAR     15  10  80 N5        30.04R WCI   8
ROMEOVILLE*    CLEAR     16  11  80 N10       30.03R WCI   4
$$

LMZ740>746-141500-
SOUTHERN LAKE MICHIGAN

STATION/POSITION SKY/WX   TEMP    WIND        PRES    VSBY  WAVE
                          AIR SEA DIR/SP/G                  HT/PER
                          (F)     (DEG/KT/KT) (MB)    (MI)  (FT/S)
HARRISON CRIB              19     310/ 15/ 17   N/A
BURNHAM HARBOR             20     310/  5/ 11   N/A
CALUMET HARBOR             19     270/  5/ 11 1015.5R
BURNS HARBOR               23     170/ 10/ 13 1016.3R
MICHIGAN CITY              20     150/  7/  9   N/A
$$

ILZ025>027-034>036-040-047-049-050-058-095>099-141500-
WEST-CENTRAL ILLINOIS

CITY           SKY/WX    TMP DP  RH WIND       PRES   REMARKS
QUINCY         CLOUDY    27  17  66 NE7       30.07R WCI  19
GALESBURG*     CLOUDY    23  17  77 N9        30.07R WCI  13
MACOMB*        CLOUDY    24  18  75 N5        30.08R WCI  18
JACKSONVILLE*  CLOUDY    25  16  70 CALM      30.07R
PITTSFIELD*    CLOUDY    28  18  66 NW6       30.07R WCI  21
$$

ILZ028>032-037-038-041>044-048-051>054-059>061-141500-
CENTRAL ILLINOIS

CITY           SKY/WX    TMP DP  RH WIND       PRES   REMARKS
PONTIAC        CLOUDY    17  13  86 NW6       30.06R WCI   8
BLOOMINGTON    PTCLDY    18  14  84 N10       30.04R WCI   6
DECATUR        CLEAR     22  16  78 N8        30.03R WCI  12
PEORIA         CLOUDY    21  12  68 N7        30.07R WCI  12
LACON*         PTCLDY    19  11  73 N6        30.08R WCI  10
LINCOLN*       CLOUDY    22  18  84 N6        30.05R WCI  14
SPRINGFIELD    CLOUDY    23  16  74 N6        30.06R WCI  16
TAYLORVILLE    CLOUDY    23  16  75 N5        30.04R WCI  17
$$

ILZ033-039-045-046-055>057-062-063-141500-
EAST-CENTRAL ILLINOIS

CITY           SKY/WX    TMP DP  RH WIND       PRES   REMARKS
CHAMPAIGN      CLOUDY    25  17  72 N15       30.01R WCI  13
DANVILLE*      CLOUDY    24  19  80 NW7       29.98R WCI  16
RANTOUL*       CLOUDY    23  17  75 N8        30.02R WCI  14
MATTOON        CLOUDY    25  19  78 N9        30.01R WCI  15
PARIS*         CLOUDY    27  21  77 N6        30.01R WCI  20
$$

ILZ079-100>102-141500-
SOUTHWEST ILLINOIS

CITY           SKY/WX    TMP DP  RH WIND       PRES   REMARKS
ALTON          CLOUDY    28  19  69 N8        30.06R WCI  20
BELLEVILLE     CLOUDY    30  17  59 N7        30.04R WCI  23
CAHOKIA*       CLOUDY    30  17  58 NE12      30.06R WCI  20
SPARTA*        CLOUDY    30  22  72 N8        30.04S WCI  23
$$

ILZ064>066-069>071-074>076-080>082-084>086-088>090-092>094-141500-
SOUTH-CENTRAL ILLINOIS

CITY           SKY/WX    TMP DP  RH WIND       PRES   REMARKS
CARBONDALE     CLOUDY    32  22  66 N9        30.04R WCI  24
CAIRO*         CLOUDY    36  27  69 N6        30.01R WCI  31
EFFINGHAM*     CLOUDY    28  21  76 W3        30.05R
MARION         CLOUDY    32  21  64 N12       30.03R WCI  23
MT. VERNON     CLOUDY    30  20  66 VRB3      30.04R
CENTRALIA*     CLOUDY    31  21  68 CALM      30.03R
SALEM*         CLOUDY    31  19  61 N7        30.04R WCI  24
METROPOLIS*    CLOUDY    35  24  66 NE8       30.02R WCI  28
$$

ILZ067-068-072-073-078-083-087-091-141500-
SOUTHEAST ILLINOIS

CITY           SKY/WX    TMP DP  RH WIND       PRES   REMARKS
LAWRENCEVILLE  CLOUDY    29  20  69 W8        30.03R WCI  21
FLORA*         CLOUDY    30  20  66 NW5       30.04R WCI  25
FAIRFIELD*     CLOUDY    30  20  68 N3        30.03S
HARRISBURG*    CLOUDY    31  21  66 N10       30.04R WCI  23
ROBINSON*      CLOUDY    28  21  76 NW6       30.03R WCI  21
CARMI*         CLOUDY    29  21  72 N6        30.02S WCI  23
$$

ABBREVIATIONS USED IN REMARKS
   TC - TEMPERATURE IN CELSIUS
  WCI - WIND CHILL INDEX
   HX - HEAT INDEX
  VSB - VISIBILITY
$$





USA.gov is the U.S. government's official web portal to all federal, state and local government web resources and services.